Location: Bouchavesnes-Bergen
(49.9859°N, 2.9203°E)
Time: 11:33:05
(UTC+00:00)

Resurs 1-4 Rocket - Pass Details

Date: 09 March 2021
Orbit: 800 x 814 km, 98.6° (Epoch: 13 April)

Event Time Altitude Azimuth Distance (km) Brightness Sun altitude
Rises 01:53:12 0° 12° (NNE) 3,353 6.1 -38.5°
Reaches altitude 10° 01:55:34 10° 10° (N) 2,416 5.2 -38.3°
Enters shadow 01:57:29 23° 6° (N) 1,687 4.1 -38.1°
